Время (UTC), дата Ветер
(°,м/с) 
Видим.   Явления Облачность Т
(°С)
Тd
(°С)
f(%) Тe
(°С)
Pmin
(гПа)
dP
(гПа)
Po
(мм)
O2
(г/м3)
Тmin Tmax R s Состояние
почвы
00 14.07.15 070 (В) 20000 м    3/3 2000 м средняя 
[Ac trans]
+17.1 +13 77 +25  1014  0.4  736  277  +12.2        сухая 
03 14.07.15 200 (Ю) 20000 м    ясно 
+24.5 +12.8 48 +30  1013.2  736  270           
06 14.07.15 190 (Ю) 20000 м    3/0 верхняя 
[Ci fib]
+27.3 +12.4 40 +32  1011.6  -1.2  735  267           
09 14.07.15 240 (ЮЗ) 20000 м    4/0 верхняя 
[Ci fib]
+29.7 +14.8 40 +39  1010.1  -1.2  735  264           
12 14.07.15 250 (З) 20000 м    6/0 верхняя 
[Ci fib]
+28.4 +15.2 45 +38  1010  -0.3  734  265    +30       
15 14.07.15 220 (ЮЗ) 20000 м    9/0 верхняя 
[Ci fib]
+21.2 +14.8 67 +30  1009.7  -1  734  271           
18 14.07.15 тихо ()   4000 м    4/0 верхняя 
[Ci fib]
+18.1 +14.7 81 +27  1009  -1  733  274           
21 14.07.15 220 (ЮЗ) 20000 м    8/4 2000 м средняя, верхняя 
[Ac trans|Ci fib]
+17.1 +14.5 85 +27  1008.5  -0.6  732  275           
00 15.07.15 200 (Ю) 20000 м    9/4 600 м кучево-дожд., средняя, верхняя 
[Cb cap|Ac trans|Ci fib]
+21.3 +14.7 66 +30  1007.2  -0.9  732  270  +16.4        сухая 
03 15.07.15 260 (З) 20000 м    9/6 600 м кучево-дожд., средняя 
[Cb cap|Ac trans]
+23.5 +15.7 62 +34  1007.1  0.3  732  268           
06 15.07.15 тихо ()   20000 м  в посл. час ливневой дождь  9/8 600 м кучево-дожд., средняя 
[Cb cap|Ac trans]
+23.3 +18.4 74 +39  1007.5  0.4  732  268           
09 15.07.15 210 (ЮЗ) 20000 м  слаб. ливневой дождь  10/8 600 м кучево-дожд., средняя 
[Cb cap|Ac As]
+22.8 +18.7 78 +39  1008.5  0.9  733  268           
12 15.07.15 230 (ЮЗ) 20000 м  {ливн. осадки}  10/8 600 м кучево-дожд., средняя 
[Cb cap|Ac As]
+21.1 +15 68 +30  1009.1  0.3  733  271    +24.8  0.3     
15 15.07.15 220 (ЮЗ) 5{10}  20000 м    10/6 600 м кучево-дожд., средняя 
[Cb cap|Ac As]
+19.9 +15.3 75 +30  1010.3  734  272           
18 15.07.15 230 (ЮЗ) 5{11}  4000 м  зарница  10/10 600 м кучево-дожд. 
[Cb cap]
+18.8 +13.9 73 +26  1011  0.6  734  274           
21 15.07.15 230 (ЮЗ) 20000 м  {ливн. осадки}  10/10 600 м кучево-дожд. 
[Cb cap]
+17.3 +15.2 87 +28  1011.8  0.6  735  275           
00 16.07.15 220 (ЮЗ) 20000 м  {ливн. осадки}  8/8 600 м кучево-дожд. 
[Cb cap]
+17.1 +14.1 82 +26  1012.6  0.8  735  276  +16.2      влажная 
03 16.07.15 250 (З) 20000 м    4/3 600 м кучево-дожд., средняя 
[Cb cap|Ac trans]
+20.9 +14.8 68 +30  1013  0.8  736  272           
06 16.07.15 230 (ЮЗ) 20000 м  слаб. ливневой дождь  9/9 600 м кучево-дожд. 
[Cb cap]
+19.5 +17 85 +34  1012.6  -0.5  736  273           
09 16.07.15 240 (ЮЗ) 20000 м  слаб. ливневой дождь  9/8 600 м кучево-дожд., средняя 
[Cb cap|Ac trans]
+21.3 +15.3 69 +31  1012.2  -0.3  735  272           
12 16.07.15 260 (З) 20000 м  {ливн. осадки}  5/5 600 м кучево-дожд. 
[Cb cap]
+23.2 +11.9 49 +27  1011.5  -0.4  735  271    +24  0.3     
15 16.07.15 240 (ЮЗ) 20000 м    3/3 600 м 
[Cu hum]
+17.1 +13.2 78 +25  1012.6  0.4  735  276           
18 16.07.15 240 (ЮЗ) 4000 м    ясно 
+14.5 +12.3 87 +20  1013  0.1  735  279           
21 16.07.15 220 (ЮЗ) 20000 м    3/3 2000 м средняя 
[Ac lent]
+12.6 +12 96 +18  1013.1  -0.2  735  281           
00 17.07.15 тихо ()   20000 м    ясно 
+16.7 +14.1 85 +24  1013  0.4  736  276  -11.7        влажная 
03 17.07.15 тихо ()   20000 м    3/3 600 м 
[Cu med, cong]
+20.9 +13.4 62 +27  1012.4  -0.1  736  273           
06 17.07.15 040 (СВ) 20000 м    6/4 600 м верхняя 
[Cu med, cong|Ci fib]
+24.2 +12.6 48 +29  1011.5  -0.5  735  270           
09 17.07.15 тихо ()   20000 м    5/4 600 м верхняя 
[Cu med, cong|Ci fib]
+25.4 +11.5 42 +29  1010.3  -1.1  734  269           
12 17.07.15 040 (СВ) 20000 м    3/1 600 м верхняя 
[Cu hum|Ci fib]
+24.5 +12.8 48 +30  1010  -0.4  734  269    +26       
15 17.07.15 230 (ЮЗ) 20000 м    5/0 верхняя 
[Ci fib]
+17.5 +13.1 75 +25  1010.8  734  275           
18 17.07.15 240 (ЮЗ) 4000 м    3/0 верхняя 
[Ci fib]
+14.5 +12.1 86 +20  1011  -0.1  734  278           
21 17.07.15 240 (ЮЗ) 20000 м    ясно 
+13.5 +11.4 87 +19  1010.4  -0.7  733  279           
00 18.07.15 060 (СВ) 20000 м    ясно 
+17.1 +12.6 75 +24  1010.4  0.5  734  276  +12.6        сухая 
03 18.07.15 070 (В) 20000 м    3/0 верхняя 
[Ci fib]
+22 +14.4 62 +30  1009.6  -0.3  734  271           
06 18.07.15 060 (СВ) 20000 м    4/0 верхняя 
[Ci fib]
+26.1 +14 47 +34  1007.8  -1.3  733  267           
09 18.07.15 050 (СВ) 20000 м    6/6 600 м 
[Cu hum]
+28.2 +14.5 43 +37  1006.4  -1.2  732  264           
12 18.07.15 060 (СВ) 20000 м    ясно 
+27.7 +13.8 42 +35  1005.4  -0.9  731  265    +28.7       
15 18.07.15 240 (ЮЗ) 20000 м    ясно 
+20.1 +15.6 75 +31  1006.4  0.1  731  271           
18 18.07.15 240 (ЮЗ) 4000 м    ясно 
+16.6 +14.5 87 +26  1006.2  -0.6  731  274           
21 18.07.15 240 (ЮЗ) 20000 м    ясно 
+15.1 +13.9 93 +23  1005.8  -0.5  730  276           
00 19.07.15 тихо ()   20000 м    ясно 
+19.5 +14.7 74 +28  1005.4  730  272  +14.8        сухая 
03 19.07.15 110 (В) 20000 м    ясно 
+23.8 +15.5 60 +34  1004.5  -0.3  730  267           
06 19.07.15 090 (В) 20000 м    ясно 
+29.1 +16.9 48 +42  1002.8  -1.1  729  262           
09 19.07.15 070 (В) 20000 м    1/1 600 м 
[Cu hum]
+32.6 +17.1 40 +46  1001.5  -0.9  729  259           
12 19.07.15 090 (В) 20000 м    ясно 
+31.8 +16.4 40 +44  1001.3  -0.3  728  259    +32.9       
15 19.07.15 210 (ЮЗ) 20000 м    3/0 верхняя 
[Ci fib]
+25.7 +17.2 59 +39  1002.5  0.6  729  265           
18 19.07.15 230 (ЮЗ) 4000 м    9/0 верхняя 
[Ci fib]
+21.6 +17 75 +35  1004  0.9  729  269           
21 19.07.15 270 (З) 20000 м    8/6 600 м кучево-дожд., средняя 
[Cb cap|Ac trans]
+24 +16.5 63 +36  1005.5  1.8  731  267           
00 20.07.15 260 (З) 20000 м    9/6 600 м кучево-дожд., средняя 
[Cb cap|Ac trans]
+23 +14.8 60 +32  1008.5  2.8  733  269  +21        сухая 
03 20.07.15 220 (ЮЗ) 20000 м  в посл. час ливневой дождь  9/6 600 м кучево-дожд., средняя, верхняя 
[Cb cap|Ac cuf|Ci fib]
+23.5 +15.6 61 +34  1009.8  1.3  734  269           
06 20.07.15 250 (З) 20000 м  {ливн. осадки}  10/3 2000 м средняя, верхняя 
[Ac cuf|Cs]
+27.5 +15.2 47 +37  1009.5  0.1  734  266           
09 20.07.15 350 (С) 20000 м    10/4 600 м кучево-дожд., средняя, верхняя 
[Cb cap|Ac trans|Cs]
+29.5 +13.9 38 +37  1009.1  -0.2  734  264           
12 20.07.15 290 (З) 20000 м  {ливн. осадки}  10/4 600 м кучево-дожд., средняя, верхняя 
[Cb cap|Ac lent|Cs]
+26 +15.9 54 +37  1009.3  -0.1  734  267    +30  0.0     
15 20.07.15 250 (З) 20000 м  в посл. час ливневой дождь  10/8 600 м кучево-дожд., средняя 
[Cb cap|Ac As]
+21.4 +16.5 74 +33  1011  1.1  735  271           
18 20.07.15 270 (З) 4000 м  слаб. ливневой дождь  10/10 600 м кучево-дожд. 
[Cb cap]
+17.3 +15.1 87 +28  1011.2  -0.3  734  275           
21 20.07.15 300 (СЗ) 20000 м  слаб. ливневой дождь  10/10 600 м кучево-дожд. 
[Cb cap]
+17.1 +15.9 93 +30  1012.4  1.2  735  275           
00 21.07.15 тихо ()   20000 м  {ливн. осадки}  9/4 600 м кучево-дожд., средняя, верхняя 
[Cb cap|Ac trans|Ci fib]
+17.8 +16.6 93 +30  1013.9  1.5  736  275  +16.8      влажная 
03 21.07.15 220 (ЮЗ) 20000 м    9/5 600 м кучево-дожд., средняя 
[Cb cap|Ac trans]
+21.5 +17.8 79 +36  1013.5  0.1  736  271           
06 21.07.15 080 (В) 20000 м    8/8 600 м кучево-дожд. 
[Cb cap]
+24.8 +17.1 62 +38  1012.6  -0.5  736  268           
09 21.07.15 230 (ЮЗ) 20000 м    8/8 600 м кучево-дожд. 
[Cb cap]
+26.6 +16.3 53 +38  1012  -0.4  736  267           
12 21.07.15 тихо ()   20000 м    9/4 600 м кучево-дожд., верхняя 
[Cb cap|Ci fib]
+25.9 +15.4 52 +36  1011.8  -0.3  736  267    +27.4       
15 21.07.15 250 (З) 20000 м    9/3 600 м кучево-дожд., верхняя 
[Cb cap|Ci fib]
+19.5 +15.3 77 +31  1013.3  0.7  736  274           
18 21.07.15 240 (ЮЗ) 4000 м    8/3 600 м кучево-дожд., верхняя 
[Cb cap|Ci fib]
+17.4 +13.9 80 +26  1014  0.4  736  276           
21 21.07.15 260 (З) 20000 м    9/5 600 м кучево-дожд., средняя, верхняя 
[Cb cap|Ac trans|Ci fib]
+17.1 +12.4 74 +24  1014.2  0.2  737  277           
00 22.07.15 290 (З) 20000 м    9/6 600 м кучево-дожд., средняя, верхняя 
[Cb cap|Ac trans|Ci fib]
+18 +13 73 +25  1014.3  0.2  737  276  +15.7        сухая 
03 22.07.15 060 (СВ) 20000 м    8/5 600 м кучево-дожд., средняя 
[Cb cap|Ac trans]
+22.2 +13.2 57 +28  1013.9  0.1  737  272           
06 22.07.15 060 (СВ) 20000 м    8/3 600 м кучево-дожд., верхняя 
[Cb cap|Ci fib]
+24.9 +12.4 46 +30  1012.8  -0.8  736  269           
09 22.07.15 040 (СВ) 20000 м    9/4 600 м кучево-дожд., верхняя 
[Cb cap|Ci fib]
+26.1 +13.8 47 +33  1012.3  -0.3  736  268           
12 22.07.15 060 (СВ) 20000 м    4/3 600 м верхняя 
[Cu hum|Ci fib]
+25.1 +12.5 45 +30  1010.9  -1.5  735  269    +26.5       
15 22.07.15 тихо ()   20000 м    9/9 2000 м средняя 
[Ac trans]
+19.4 +12.7 65 +25  1011.7  0.1  735  274           
18 22.07.15 тихо ()   4000 м    9/5 2000 м кучево-дожд., средняя 
[Cb cap|Ac trans]
+16.5 +12.5 77 +22  1011  -1  734  276           
21 22.07.15 250 (З) 20000 м    10/6 600 м кучево-дожд., средняя 
[Cb cap|Ac As]
+15.4 +11.7 79 +21  1009.2  -1.8  733  277           
00 23.07.15 тихо ()   20000 м    9/4 600 м кучево-дожд., средняя 
[Cb cap|Ac trans]
+16.4 +12.6 78 +22  1008.3  -0.8  732  276  +15        сухая 
03 23.07.15 тихо ()   20000 м    10/6 600 м кучево-дожд., средняя 
[Cb cap|Ac As]
+20.7 +13 61 +27  1006.8  -1  731  271           
06 23.07.15 тихо ()   20000 м  в посл. час ливневой дождь  10/8 600 м кучево-дожд., средняя 
[Cb cap|Ac As]
+20.7 +15.9 74 +32  1006.5  -0.2  731  270           
09 23.07.15 040 (СВ) 20000 м  {ливн. осадки}  9/6 600 м кучево-дожд., средняя, верхняя 
[Cb cap|Ac cuf|Ci fib]
+23.3 +18.4 74 +39  1005.5  -0.6  731  267           
12 23.07.15 360 (С) 20000 м  {ливн. осадки}  9/8 600 м кучево-дожд., верхняя 
[Cb cap|Ci fib]
+23.5 +20.1 81 +43  1005.1  -0.4  731  266    +24.4     
15 23.07.15 230 (ЮЗ) 20000 м  в посл. час ливневой дождь{гроза}  9/5 600 м кучево-дожд., верхняя 
[Cb cap|Ci fib]
+17.3 +15.4 89 +28  1006.8  0.9  731  274           
18 23.07.15 230 (ЮЗ) 3{10}  4000 м  слаб. ливневой дождь{гроза}  9/8 600 м кучево-дожд., верхняя 
[Cb cap|Ci fib]
+17.3 +15.2 87 +28  1006.2  -0.6  731  274           
21 23.07.15 230 (ЮЗ) 20000 м  слаб. ливневой дождь  10/10 600 м кучево-дожд. 
[Cb cap]
+17.3 +16.1 93 +29  1006.3  0.1  731  273           
00 24.07.15 230 (ЮЗ) 20000 м  {ливн. осадки}  10/10 600 м кучево-дожд. 
[Cb cap]
+17.9 +15.7 87 +30  1006.7  0.5  731  273  +16.6      влажная 
03 24.07.15 240 (ЮЗ) 20000 м  слаб. ливневой дождь  10/10 600 м кучево-дожд. 
[Cb cap]
+16.8 +15.1 90 +26  1008.3  1.4  732  275           
06 24.07.15 250 (З) 20000 м  {ливн. осадки}  10/10 600 м кучево-дожд. 
[Cb cap]
+16.9 +14.1 84 +26  1009.8  1.5  733  275           
09 24.07.15 250 (З) 20000 м    10/10 600 м кучево-дожд. 
[Cb cap]
+18.6 +13.5 72 +27  1009.8  0.1  733  274           
12 24.07.15 250 (З) 20000 м    10/10 600 м кучево-дожд. 
[Cb cap]
+19.9 +14.4 71 +29  1009.8  0.2  734  273    +20     
15 24.07.15 240 (ЮЗ) 20000 м    9/9 600 м кучево-дожд. 
[Cb cap]
+18.9 +14.2 74 +28  1010  0.1  734  274           
18 24.07.15 230 (ЮЗ) 4000 м    9/4 600 м кучево-дожд., средняя 
[Cb cap|Ac trans]
+17.8 +13.8 77 +26  1009.6  -0.5  733  275           
21 24.07.15 230 (ЮЗ) 20000 м    6/3 600 м кучево-дожд., верхняя 
[Cb cap|Ci fib]
+16.2 +14.1 87 +25  1009.3  -0.5  733  276           
00 25.07.15 060 (СВ) 20000 м    3/0 верхняя 
[Ci fib]
+17.7 +14.8 83 +28  1009.3  0.2  733  274  +14.3        влажная 
03 25.07.15 120 (ЮВ) 20000 м    3/3 600 м кучево-дожд. 
[Cb cap]
+23.1 +12.7 52 +29  1008.2  -0.5  733  270           
06 25.07.15 030 (СВ) 20000 м    8/8 600 м кучево-дожд., верхняя 
[Cb cap|Ci fib]
+24.7 +14.1 52 +32  1006.2  -1.7  731  267           
09 25.07.15 050 (СВ) 20000 м    8/5 600 м кучево-дожд., верхняя 
[Cb cap|Ci fib]
+25 +13.4 49 +32  1004.4  -1.8  730  267           
12 25.07.15 070 (В) 20000 м    4/0 верхняя 
[Ci fib]
+25.5 +13.2 46 +32  1002.5  -1.8  729  266    +26.2       
15 25.07.15 240 (ЮЗ) 20000 м    8/0 верхняя 
[Ci fib]
+18.4 +15.2 82 +29  1003.2  -0.1  729  272           
18 25.07.15 240 (ЮЗ) 4000 м    ясно 
+16.2 +14.5 90 +27  1001.8  -1.6  727  274           
21 25.07.15 250 (З) 20000 м    3/0 верхняя 
[Ci fib]
+14 +13.1 94 +21  1000.5  -1.4  726  276           
00 26.07.15 060 (СВ) 20000 м    9/0 верхняя 
[Ci fib]
+17.8 +14.9 83 +28  998.9  -1.2  725  271  +13.7        сухая 
03 26.07.15 090 (В) 20000 м    8/0 верхняя 
[Ci]
+21.9 +15.6 67 +33  998  -0.5  725  267           
06 26.07.15 040 (СВ) 20000 м    9/0 верхняя 
[Ci]
+27.1 +17.2 55 +41  996.8  -0.5  725  262           
09 26.07.15 280 (З) 20000 м  гроза без осадков  9/6 600 м кучево-дожд., средняя, верхняя 
[Cb cap|Ac trans|Ci fib]
+26.5 +17.1 56 +40  997.2  0.3  725  262           
12 26.07.15 230 (ЮЗ) 3{10}  20000 м  в посл. час гроза{ливн. осадки}  9/8 600 м кучево-дожд., верхняя 
[Cb cap|Ci fib]
+19.8 +16.8 83 +34  1000  726  269    +29.6  0.9     
15 26.07.15 тихо ()   4000 м  слаб. ливневой дождь  10/10 600 м кучево-дожд. 
[Cb cap]
+18.9 +16.8 88 +32  1001.7  1.5  728  270           
18 26.07.15 тихо ()   4000 м  {ливн. осадки}  9/9 600 м кучево-дожд. 
[Cb cap]
+18.1 +16.9 93 +31  1002.3  0.5  728  271           
21 26.07.15 250 (З) 4000 м    10/6 600 м кучево-дожд., средняя 
[Cb cap|Ac As]
+17.7 +15.5 87 +29  1003.1  0.8  729  272           
00 27.07.15 260 (З) 20000 м  {ливн. осадки}  10/10 600 м кучево-дожд. 
[Cb cap]
+17.4 +15 86 +27  1004.6  1.3  730  273  +17    0.4    влажная 
03 27.07.15 290 (З) 20000 м    9/6 600 м кучево-дожд., средняя 
[Cb cap|Ac trans]
+19.5 +14.2 71 +29  1005.2  0.8  730  272           
06 27.07.15 240 (ЮЗ) 20000 м    9/8 600 м кучево-дожд., верхняя 
[Cb cap|Ci fib]
+21.9 +12.8 56 +28  1004.8  -0.1  730  270           
09 27.07.15 тихо ()   20000 м    9/5 600 м кучево-дожд., верхняя 
[Cb cap|Ci fib]
+24.9 +12.6 46 +30  1004  -0.4  730  267           
12 27.07.15 070 (В) 20000 м    6/3 600 м верхняя 
[Cu med, cong|Ci fib]
+23.7 +12.1 48 +28  1003.6  -0.6  729  268    +25.5       
15 27.07.15 220 (ЮЗ) 4000 м    4/4 2000 м средняя 
[Ac trans]
+17.3 +13 76 +25  1004.4  0.1  729  274           
18 27.07.15 тихо ()   4000 м    ясно 
+14.1 +13 93 +20  1004.2  -0.4  729  277           
21 27.07.15 240 (ЮЗ) 4000 м    3/0 верхняя 
[Ci fib]
+13.2 +12.7 97 +20  1004  -0.4  729  278           
00 28.07.15 060 (СВ) 20000 м    6/0 верхняя 
[Ci fib]
+16.5 +13.5 82 +25  1003.3  -0.3  729  274  +12.6        сухая 
03 28.07.15 080 (В) 20000 м    4/0 верхняя 
[Ci fib]
+21.2 +14.2 64 +29  1001.6  -1.2  728  269           
06 28.07.15 060 (СВ) 20000 м    9/5 600 м кучево-дожд., средняя 
[Cb cap|Ac trans]
+25 +15.2 55 +35  1000  -1.1  727  265           
09 28.07.15 220 (ЮЗ) 20000 м    6/4 600 м кучево-дожд., средняя 
[Cb cap|Ac trans]
+27.6 +15.6 48 +38  998.5  -1.1  726  262           
12 28.07.15 200 (Ю) 10 км  гроза, ливневой дождь  8/6 600 м кучево-дожд., средняя 
[Cb cap|Ac trans]
+20.7 +17.1 80 +34  999  -0.3  726  268    +28.2     
15 28.07.15 210 (ЮЗ) 4000 м  гроза, ливневой дождь  9/8 600 м кучево-дожд., средняя 
[Cb cap|Ac trans]
+18.5 +16.5 88 +31  1000.5  0.3  727  271           
18 28.07.15 240 (ЮЗ) 4000 м  гроза, ливневой дождь  10/10 600 м кучево-дожд. 
[Cb cap]
+16.3 +15.1 93 +27  1001.9  728  273           
21 28.07.15 240 (ЮЗ) 1{10}  4000 м  слаб. ливневой дождь{гроза}  10/10 600 м кучево-дожд. 
[Cb cap]
+15.2 +14.3 94 +25  1001.8  -0.2  727  275           
00 29.07.15 240 (ЮЗ) 20000 м  {гроза, ливн. осадки}  9/5 600 м кучево-дожд., средняя 
[Cb cap|Ac trans]
+15.5 +13.5 88 +23  1003.9  2.1  729  275  +14.8    15    влажная 
03 29.07.15 230 (ЮЗ) 20000 м    6/6 600 м кучево-дожд. 
[Cb cap]
+19.2 +14 72 +28  1004.3  0.7  729  272           
06 29.07.15 250 (З) 20000 м    5/5 600 м кучево-дожд. 
[Cb cap]
+22.4 +12.4 53 +28  1004.4  0.4  730  269           
09 29.07.15 230 (ЮЗ) 20000 м  {ливн. осадки}  4/4 600 м 
[Cu med, cong]
+23.5 +12.3 49 +28  1004.1  -0.2  730  268           
12 29.07.15 тихо ()   20000 м  {ливн. осадки}  8/4 600 м средняя 
[Cu med, cong|Ac cuf]
+22.5 +13.6 57 +30  1004.1  -0.1  730  269    +24.4  0.0     
15 29.07.15 230 (ЮЗ) 4000 м    4/4 600 м 
[Cu med, cong]
+16 +12 77 +22  1004.6  -0.1  729  275           
18 29.07.15 190 (Ю) 4000 м    5/5 600 м кучево-дожд. 
[Cb cap]
+14.4 +12 85 +21  1005.2  0.4  730  277           
21 29.07.15 230 (ЮЗ) 4000 м    8/8 600 м кучево-дожд. 
[Cb cap]
+14.3 +12.3 88 +21  1004.7  -0.5  729  277           
06 30.07.15 220 (ЮЗ) 20000 м    9/4 600 м кучево-дожд., верхняя 
[Cb cap|Ci fib]
+24.4 +12.6 48 +30  1002.8  -0.8  729  267           
09 30.07.15 240 (ЮЗ) 20000 м  в посл. час гроза  9/5 600 м кучево-дожд., верхняя 
[Cb cap|Ci fib]
+26.3 +11.2 39 +30  1002  -0.5  728  266           
12 30.07.15 220 (ЮЗ) 20000 м  {гроза}  9/6 600 м кучево-дожд., средняя, верхняя 
[Cb cap|Ac trans|Ci fib]
+23.3 +13.3 53 +30  1002.4  728  268    +26.6       
15 30.07.15 220 (ЮЗ) 4000 м  зарница  8/3 600 м кучево-дожд., верхняя 
[Cb cap|Ci fib]
+19.3 +12.5 65 +25  1004.1  1.2  729  272           
21 30.07.15 230 (ЮЗ) 4000 м    9/9 600 м кучево-дожд. 
[Cb cap]
+15.5 +12.6 83 +20  1006.2  1.3  731  276           
00 31.07.15 250 (З) 20000 м    9/8 600 м кучево-дожд., средняя 
[Cb cap|Ac trans]
+16.1 +13.1 82 +23  1007.8  1.6  732  276  +15      влажная 
03 31.07.15 250 (З) 20000 м    9/8 600 м кучево-дожд., средняя, верхняя 
[Cb cap|Ac trans|Ci fib]
+19.4 +13.3 68 +26  1008.5  733  273           
06 31.07.15 230 (ЮЗ) 20000 м    9/8 600 м кучево-дожд., средняя 
[Cb cap|Ac trans]
+21.9 +12.4 55 +27  1008.7  0.5  733  271           
09 31.07.15 270 (З) 20000 м  слаб. ливневой дождь  9/8 600 м кучево-дожд., средняя 
[Cb cap|Ac trans]
+19.8 +12.3 62 +26  1009.4  0.4  733  273           
12 31.07.15 250 (З) 20000 м  {ливн. осадки}  9/3 600 м верхняя 
[Cu hum|Ci fib]
+20.3 +12.5 61 +25  1009.9  0.6  734  273    +22.3  0.0     
15 31.07.15 230 (ЮЗ) 4000 м    9/5 2000 м средняя, верхняя 
[Ac trans|Ci fib]
+17.2 +11.3 68 +21  1011.4  1.1  734  276           
18 31.07.15 220 (ЮЗ) 4000 м    3/0 верхняя 
[Ci fib]
+16.4 +10.8 69 +20  1012.1  0.6  735  277           
21 31.07.15 230 (ЮЗ) 4000 м    4/4 2000 м средняя 
[Ac trans]
+15.1 +11.6 80 +19  1012.5  0.3  735  278           
00 01.08.15 220 (ЮЗ) 20000 м    8/3 600 м верхняя 
[Cu hum|Ci fib]
+16.1 +11.9 76 +20  1012.5  0.1  735  277  +14.7        сухая 
03 01.08.15 230 (ЮЗ) 20000 м    9/3 600 м средняя, верхняя 
[Cu med, cong|Ac trans|Ci fib]
+19.6 +12.7 64 +25  1012.2  735  274           
06 01.08.15 230 (ЮЗ) 20000 м  в посл. час ливневой дождь  10/8 600 м кучево-дожд., средняя 
[Cb cap|Ac As]
+19.9 +13.8 68 +28  1011.1  -1  734  273           
09 01.08.15 220 (ЮЗ) 20000 м  {ливн. осадки}  9/5 600 м кучево-дожд., средняя 
[Cb cap|Ac trans]
+22.7 +13.4 56 +29  1009.3  -1.5  733  270           
12 01.08.15 330 (СЗ) 3{10}  20000 м  {ливн. осадки}  9/8 600 м кучево-дожд., верхняя 
[Cb cap|Ci fib]
+23.1 +14.1 57 +31  1009.2  0.1  733  270    +24.2  0.0     
18 01.08.15 300 (СЗ) 1{10}  4000 м  {ливн. осадки}  10/10 600 м кучево-дожд. 
[Cb cap]
+16.9 +14.3 85 +26  1008.9  0.4  733  275           
21 01.08.15 220 (ЮЗ) 4000 м  в посл. час ливневой дождь  10/10 600 м кучево-дожд. 
[Cb cap]
+16.1 +14.5 90 +25  1006  -2.9  731  275           
00 02.08.15 220 (ЮЗ) 20000 м  {ливн. осадки}  10/5 600 м кучево-дожд., средняя, верхняя 
[Cb cap|Ac trans|Cs]
+16.6 +13.8 84 +23  1004.3  -1.6  729  274  +15    13    влажная 
03 02.08.15 220 (ЮЗ) 4{10}  20000 м    10/6 600 м кучево-дожд., средняя 
[Cb cap|Ac As]
+19.7 +13.4 67 +27  1002.4  -1.6  728  271           
06 02.08.15 200 (Ю) 20000 м  слаб. ливневой дождь  10/8 600 м кучево-дожд., средняя 
[Cb cap|Ac As]
+19.9 +15.3 75 +31  1001.6  -0.7  728  270           
09 02.08.15 220 (ЮЗ) 20000 м  {ливн. осадки}  9/8 600 м кучево-дожд., средняя, верхняя 
[Cb cap|Ac trans|Ci fib]
+24.7 +13.9 51 +32  999.7  -1.3  727  266           
12 02.08.15 тихо () {11}  20000 м  {гроза, ливн. осадки}  9/9 600 м кучево-дожд. 
[Cb cap]
+17.3 +15.4 89 +27  1002.7  2.1  728  273    +24.8     
Время (UTC), дата Ветер
(°,м/с) 
Видим.   Явления Облачность Т
(°С)
Тd
(°С)
f(%) Тe
(°С)
Pmin
(гПа)
dP
(гПа)
Po
(мм)
O2
(г/м3)
Тmin Tmax R s Состояние
почвы